TimeMDT,TemperatureF,Dew PointF,Humidity,Sea Level PressureIn,VisibilityMPH,Wind Direction,Wind SpeedMPH,Gust SpeedMPH,PrecipitationIn,Events,Conditions,WindDirDegrees,DateUTC
12:53 AM,37.9,32.0,79,29.94,10.0,NE,6.9,-,N/A,,Overcast,40,2012-10-29 06:53:00
1:53 AM,37.0,33.1,86,29.95,10.0,North,4.6,-,N/A,,Mostly Cloudy,10,2012-10-29 07:53:00
2:53 AM,37.0,32.0,82,29.95,10.0,North,3.5,-,N/A,,Clear,360,2012-10-29 08:53:00
3:53 AM,35.1,32.0,89,29.95,10.0,NNW,5.8,-,N/A,,Clear,330,2012-10-29 09:53:00
4:53 AM,34.0,30.9,89,29.96,10.0,WNW,4.6,-,N/A,,Clear,290,2012-10-29 10:53:00
5:53 AM,35.1,30.9,85,29.97,10.0,WNW,3.5,-,N/A,,Clear,290,2012-10-29 11:53:00
6:53 AM,33.1,30.9,92,29.98,10.0,Calm,Calm,-,N/A,,Clear,0,2012-10-29 12:53:00
7:53 AM,32.0,30.0,92,29.99,10.0,SSW,5.8,-,N/A,,Clear,200,2012-10-29 13:53:00
8:53 AM,37.9,35.1,89,29.99,10.0,South,5.8,-,N/A,,Clear,190,2012-10-29 14:53:00
9:53 AM,41.0,35.1,79,29.99,10.0,SSE,6.9,-,N/A,,Mostly Cloudy,150,2012-10-29 15:53:00
10:53 AM,45.0,36.0,71,29.97,10.0,SSE,8.1,-,N/A,,Overcast,150,2012-10-29 16:53:00
11:53 AM,48.9,36.0,61,29.96,10.0,SSE,6.9,-,N/A,,Overcast,150,2012-10-29 17:53:00
12:53 PM,51.1,37.0,59,29.96,10.0,Calm,Calm,-,0.00,,Overcast,0,2012-10-29 18:53:00
1:53 PM,50.0,39.9,68,29.96,10.0,Calm,Calm,-,0.00,Rain,Light Rain,0,2012-10-29 19:53:00
2:53 PM,50.0,42.1,74,29.94,10.0,ESE,3.5,-,0.00,Rain,Light Rain,110,2012-10-29 20:53:00
3:53 PM,52.0,42.1,69,29.92,10.0,ESE,5.8,-,0.00,,Mostly Cloudy,120,2012-10-29 21:53:00
4:53 PM,52.0,43.0,71,29.92,10.0,SSE,3.5,-,N/A,,Overcast,150,2012-10-29 22:53:00
5:53 PM,51.1,43.0,74,29.93,10.0,Calm,Calm,-,N/A,,Overcast,0,2012-10-29 23:53:00
6:53 PM,46.9,41.0,80,29.95,10.0,NNE,3.5,-,N/A,,Scattered Clouds,30,2012-10-30 00:53:00
7:53 PM,44.1,41.0,89,29.96,10.0,ESE,3.5,-,N/A,,Clear,120,2012-10-30 01:53:00
8:53 PM,45.0,41.0,86,29.95,10.0,ESE,3.5,-,N/A,,Partly Cloudy,110,2012-10-30 02:53:00
9:53 PM,45.0,42.1,90,29.95,10.0,ESE,4.6,-,0.01,,Mostly Cloudy,110,2012-10-30 03:53:00
10:53 PM,48.9,44.1,83,29.99,10.0,West,13.8,20.7,0.01,Rain,Light Rain,280,2012-10-30 04:53:00
11:18 PM,53.6,46.4,77,29.92,10.0,NNW,9.2,24.2,0.03,Rain,Light Rain,330,2012-10-30 05:18:00
11:53 PM,50.0,44.1,80,29.94,10.0,SW,5.8,-,0.03,,Clear,230,2012-10-30 05:53:00